Time,TemperatureF,DewpointF,PressureIn,WindDirection,WindDirectionDegrees,WindSpeedMPH,WindSpeedGustMPH,Humidity,HourlyPrecipIn,Conditions,Clouds,dailyrainin,SoftwareType,DateUTC
2013-09-25 00:03:00,51.5,49.8,29.95,North,5,1.0,2.0,94,0.00,,,0.00,Wunderground v.1.15,2013-09-25 05:03:00,
2013-09-25 00:08:00,51.7,49.7,29.95,East,82,0.0,2.0,93,0.00,,,0.00,Wunderground v.1.15,2013-09-25 05:08:00,
2013-09-25 00:14:00,51.8,49.8,29.95,East,95,0.0,2.0,93,0.00,,,0.00,Wunderground v.1.15,2013-09-25 05:14:00,
2013-09-25 00:20:00,51.8,49.8,29.95,NE,40,0.0,0.0,93,0.00,,,0.00,Wunderground v.1.15,2013-09-25 05:20:00,
2013-09-25 00:26:00,51.9,49.9,29.95,NE,37,0.0,0.0,93,0.00,,,0.00,Wunderground v.1.15,2013-09-25 05:26:00,
2013-09-25 00:32:00,51.8,49.8,29.95,NE,34,0.0,0.0,93,0.00,,,0.00,Wunderground v.1.15,2013-09-25 05:32:00,
2013-09-25 00:37:00,51.9,49.9,29.95,North,6,0.0,0.0,93,0.00,,,0.00,Wunderground v.1.15,2013-09-25 05:37:00,
2013-09-25 00:43:00,52.0,50.0,29.95,North,9,0.0,0.0,93,0.00,,,0.00,Wunderground v.1.15,2013-09-25 05:43:00,
2013-09-25 00:49:00,52.0,50.0,29.95,North,359,0.0,0.0,93,0.00,,,0.00,Wunderground v.1.15,2013-09-25 05:49:00,
2013-09-25 00:54:00,52.1,50.0,29.95,NNW,336,0.0,1.0,93,0.00,,,0.00,weatherlink.com 1.10,2013-09-25 05:54:00,
2013-09-25 01:00:00,52.2,50.2,29.95,NNE,18,0.0,0.0,93,0.00,,,0.00,Wunderground v.1.15,2013-09-25 06:00:00,
2013-09-25 01:05:00,52.2,50.2,29.96,North,4,0.0,0.0,93,0.00,,,0.00,Wunderground v.1.15,2013-09-25 06:05:00,
2013-09-25 01:10:00,52.1,50.1,29.95,NNE,15,0.0,0.0,93,0.00,,,0.00,Wunderground v.1.15,2013-09-25 06:10:00,
2013-09-25 01:16:00,52.0,50.0,29.95,NNW,335,0.0,0.0,93,0.00,,,0.00,Wunderground v.1.15,2013-09-25 06:16:00,
2013-09-25 01:21:00,51.9,49.9,29.95,North,358,0.0,0.0,93,0.00,,,0.00,Wunderground v.1.15,2013-09-25 06:21:00,
2013-09-25 01:27:00,52.0,50.0,29.95,NNE,18,0.0,0.0,93,0.00,,,0.00,Wunderground v.1.15,2013-09-25 06:27:00,
2013-09-25 01:32:00,51.7,49.7,29.95,NNE,22,0.0,0.0,93,0.00,,,0.00,Wunderground v.1.15,2013-09-25 06:32:00,
2013-09-25 01:38:00,51.5,49.5,29.95,North,359,0.0,0.0,93,0.00,,,0.00,Wunderground v.1.15,2013-09-25 06:38:00,
2013-09-25 01:44:00,51.5,49.5,29.96,North,10,0.0,0.0,93,0.00,,,0.00,Wunderground v.1.15,2013-09-25 06:44:00,
2013-09-25 01:49:00,51.7,50.0,29.96,North,9,1.0,2.0,94,0.00,,,0.00,Wunderground v.1.15,2013-09-25 06:49:00,
2013-09-25 01:55:00,51.8,50.0,29.95,North,6,0.0,2.0,93,0.00,,,0.00,weatherlink.com 1.10,2013-09-25 06:55:00,
2013-09-25 02:00:00,51.8,50.1,29.95,ENE,68,0.0,0.0,94,0.00,,,0.00,Wunderground v.1.15,2013-09-25 07:00:00,
2013-09-25 02:05:00,51.9,50.2,29.95,North,5,0.0,0.0,94,0.00,,,0.00,Wunderground v.1.15,2013-09-25 07:05:00,
2013-09-25 02:10:00,52.0,50.3,29.95,North,7,0.0,0.0,94,0.00,,,0.00,Wunderground v.1.15,2013-09-25 07:10:00,
2013-09-25 02:15:00,52.1,50.4,29.95,NNE,18,0.0,0.0,94,0.00,,,0.00,Wunderground v.1.15,2013-09-25 07:15:00,
2013-09-25 02:20:00,52.2,50.5,29.95,North,6,0.0,0.0,94,0.00,,,0.00,Wunderground v.1.15,2013-09-25 07:20:00,
2013-09-25 02:25:00,52.3,50.6,29.95,North,9,0.0,0.0,94,0.00,,,0.00,Wunderground v.1.15,2013-09-25 07:25:00,
2013-09-25 02:30:00,52.4,50.7,29.95,North,5,0.0,0.0,94,0.00,,,0.00,Wunderground v.1.15,2013-09-25 07:30:00,
2013-09-25 02:35:00,52.5,50.8,29.95,NNE,20,1.0,2.0,94,0.00,,,0.00,Wunderground v.1.15,2013-09-25 07:35:00,
2013-09-25 02:40:00,52.5,50.8,29.94,North,4,1.0,2.0,94,0.00,,,0.00,Wunderground v.1.15,2013-09-25 07:40:00,
2013-09-25 02:45:00,52.5,50.8,29.94,North,5,0.0,3.0,94,0.00,,,0.00,Wunderground v.1.15,2013-09-25 07:45:00,
2013-09-25 02:50:00,52.4,50.7,29.95,North,356,1.0,1.0,94,0.00,,,0.00,Wunderground v.1.15,2013-09-25 07:50:00,
2013-09-25 02:55:00,52.4,50.7,29.95,NNE,24,0.0,2.0,94,0.00,,,0.00,Wunderground v.1.15,2013-09-25 07:55:00,
2013-09-25 03:00:00,52.3,50.6,29.94,NNE,12,2.0,2.0,94,0.00,,,0.00,Wunderground v.1.15,2013-09-25 08:00:00,
2013-09-25 03:05:00,52.1,50.1,29.95,NNE,15,1.0,3.0,93,0.00,,,0.00,Wunderground v.1.15,2013-09-25 08:05:00,
2013-09-25 03:10:00,52.0,50.0,29.95,NNW,341,1.0,1.0,93,0.00,,,0.00,Wunderground v.1.15,2013-09-25 08:10:00,
2013-09-25 03:15:00,51.8,49.8,29.95,ENE,68,0.0,1.0,93,0.00,,,0.00,Wunderground v.1.15,2013-09-25 08:15:00,
2013-09-25 03:20:00,51.6,49.9,29.95,NE,53,0.0,1.0,94,0.00,,,0.00,Wunderground v.1.15,2013-09-25 08:20:00,
2013-09-25 03:25:00,51.5,49.8,29.95,NNE,18,1.0,3.0,94,0.00,,,0.00,Wunderground v.1.15,2013-09-25 08:25:00,
2013-09-25 03:30:00,51.6,49.9,29.95,NNW,341,0.0,1.0,94,0.00,,,0.00,Wunderground v.1.15,2013-09-25 08:30:00,
2013-09-25 03:35:00,51.4,49.7,29.95,NNE,12,1.0,2.0,94,0.00,,,0.01,Wunderground v.1.15,2013-09-25 08:35:00,
2013-09-25 03:40:00,51.4,49.7,29.95,NNE,16,0.0,1.0,94,0.00,,,0.01,Wunderground v.1.15,2013-09-25 08:40:00,
2013-09-25 03:45:00,51.5,49.8,29.95,North,4,1.0,2.0,94,0.00,,,0.01,Wunderground v.1.15,2013-09-25 08:45:00,
2013-09-25 03:50:00,51.6,49.9,29.95,NNW,343,0.0,0.0,94,0.00,,,0.01,Wunderground v.1.15,2013-09-25 08:50:00,
2013-09-25 03:55:00,51.7,50.3,29.95,North,10,0.0,0.0,95,0.00,,,0.01,Wunderground v.1.15,2013-09-25 08:55:00,
2013-09-25 04:00:00,51.8,50.1,29.95,NNW,348,0.0,1.0,94,0.00,,,0.01,Wunderground v.1.15,2013-09-25 09:00:00,
2013-09-25 04:05:00,51.8,50.1,29.95,North,8,0.0,1.0,94,0.00,,,0.01,Wunderground v.1.15,2013-09-25 09:05:00,
2013-09-25 04:10:00,51.9,50.5,29.95,NNE,29,0.0,0.0,95,0.00,,,0.01,Wunderground v.1.15,2013-09-25 09:10:00,
2013-09-25 04:15:00,52.0,50.6,29.95,North,6,0.0,2.0,95,0.00,,,0.01,Wunderground v.1.15,2013-09-25 09:15:00,
2013-09-25 04:20:00,52.0,50.6,29.95,North,360,0.0,2.0,95,0.00,,,0.01,Wunderground v.1.15,2013-09-25 09:20:00,
2013-09-25 04:25:00,52.0,50.3,29.95,NW,312,1.0,2.0,94,0.00,,,0.01,Wunderground v.1.15,2013-09-25 09:25:00,
2013-09-25 04:30:00,52.0,50.6,29.95,NNW,343,0.0,1.0,95,0.00,,,0.01,Wunderground v.1.15,2013-09-25 09:30:00,
2013-09-25 04:35:00,51.9,50.5,29.95,North,8,0.0,2.0,95,0.00,,,0.01,Wunderground v.1.15,2013-09-25 09:35:00,
2013-09-25 04:40:00,51.9,50.2,29.95,North,11,1.0,1.0,94,0.00,,,0.01,Wunderground v.1.15,2013-09-25 09:40:00,
2013-09-25 04:45:00,52.0,50.6,29.96,NE,42,0.0,2.0,95,0.00,,,0.01,Wunderground v.1.15,2013-09-25 09:45:00,
2013-09-25 04:50:00,52.0,50.6,29.96,North,360,0.0,1.0,95,0.00,,,0.01,Wunderground v.1.15,2013-09-25 09:50:00,
2013-09-25 04:55:00,52.0,50.6,29.96,North,8,0.0,2.0,95,0.00,,,0.01,Wunderground v.1.15,2013-09-25 09:55:00,
2013-09-25 05:00:00,52.3,50.9,29.96,North,355,1.0,2.0,95,0.00,,,0.01,Wunderground v.1.15,2013-09-25 10:00:00,
2013-09-25 05:05:00,52.4,51.0,29.96,NNW,347,1.0,3.0,95,0.00,,,0.01,Wunderground v.1.15,2013-09-25 10:05:00,
2013-09-25 05:10:00,52.6,51.2,29.96,NNE,22,0.0,1.0,95,0.00,,,0.01,Wunderground v.1.15,2013-09-25 10:10:00,
2013-09-25 05:15:00,52.8,51.4,29.96,North,5,3.0,4.0,95,0.00,,,0.01,Wunderground v.1.15,2013-09-25 10:15:00,
2013-09-25 05:21:00,52.9,51.5,29.96,North,4,2.0,2.0,95,0.00,,,0.01,Wunderground v.1.15,2013-09-25 10:21:00,
2013-09-25 05:26:00,52.9,51.5,29.96,NNE,16,1.0,3.0,95,0.00,,,0.01,Wunderground v.1.15,2013-09-25 10:26:00,
2013-09-25 05:31:00,52.8,51.4,29.96,North,10,1.0,2.0,95,0.00,,,0.01,Wunderground v.1.15,2013-09-25 10:31:00,
2013-09-25 05:36:00,52.7,51.3,29.96,North,11,2.0,3.0,95,0.00,,,0.01,Wunderground v.1.15,2013-09-25 10:36:00,
2013-09-25 05:41:00,52.7,51.3,29.96,North,352,2.0,2.0,95,0.00,,,0.01,Wunderground v.1.15,2013-09-25 10:41:00,
2013-09-25 05:46:00,52.6,51.2,29.96,North,6,2.0,2.0,95,0.00,,,0.01,Wunderground v.1.15,2013-09-25 10:46:00,
2013-09-25 05:51:00,52.7,51.3,29.96,North,356,1.0,3.0,95,0.00,,,0.01,Wunderground v.1.15,2013-09-25 10:51:00,
2013-09-25 05:56:00,52.6,51.2,29.96,NNW,330,1.0,3.0,95,0.00,,,0.01,Wunderground v.1.15,2013-09-25 10:56:00,
2013-09-25 06:01:00,52.6,50.9,29.96,NE,34,1.0,3.0,94,0.00,,,0.01,Wunderground v.1.15,2013-09-25 11:01:00,
2013-09-25 06:06:00,52.5,50.8,29.96,NNW,338,2.0,3.0,94,0.00,,,0.01,Wunderground v.1.15,2013-09-25 11:06:00,
2013-09-25 06:11:00,52.4,50.7,29.96,North,355,1.0,2.0,94,0.00,,,0.01,Wunderground v.1.15,2013-09-25 11:11:00,
2013-09-25 06:16:00,52.2,50.5,29.96,NNW,330,2.0,3.0,94,0.00,,,0.01,Wunderground v.1.15,2013-09-25 11:16:00,
2013-09-25 06:21:00,52.2,50.5,29.96,North,359,1.0,2.0,94,0.00,,,0.01,Wunderground v.1.15,2013-09-25 11:21:00,
2013-09-25 06:26:00,52.1,50.4,29.96,NNW,346,0.0,3.0,94,0.00,,,0.01,Wunderground v.1.15,2013-09-25 11:26:00,
2013-09-25 06:31:00,52.1,50.7,29.97,North,351,1.0,3.0,95,0.00,,,0.01,Wunderground v.1.15,2013-09-25 11:31:00,
2013-09-25 06:36:00,52.2,50.8,29.97,NNW,338,1.0,4.0,95,0.00,,,0.01,Wunderground v.1.15,2013-09-25 11:36:00,
2013-09-25 06:41:00,52.3,50.9,29.97,NNW,344,2.0,2.0,95,0.00,,,0.01,Wunderground v.1.15,2013-09-25 11:41:00,
2013-09-25 06:46:00,52.2,50.8,29.97,North,9,1.0,3.0,95,0.00,,,0.01,Wunderground v.1.15,2013-09-25 11:46:00,
2013-09-25 06:51:00,52.1,50.7,29.97,North,1,0.0,1.0,95,0.00,,,0.01,Wunderground v.1.15,2013-09-25 11:51:00,
2013-09-25 06:56:00,52.2,50.8,29.97,NNE,19,1.0,3.0,95,0.00,,,0.01,Wunderground v.1.15,2013-09-25 11:56:00,
2013-09-25 07:01:00,52.4,51.0,29.97,North,1,0.0,3.0,95,0.00,,,0.01,Wunderground v.1.15,2013-09-25 12:01:00,
2013-09-25 07:06:00,52.6,51.2,29.97,NW,306,2.0,3.0,95,0.00,,,0.01,Wunderground v.1.15,2013-09-25 12:06:00,
2013-09-25 07:11:00,52.9,51.5,29.97,North,354,1.0,3.0,95,0.00,,,0.01,Wunderground v.1.15,2013-09-25 12:11:00,
2013-09-25 07:16:00,53.1,51.7,29.97,NW,317,1.0,3.0,95,0.00,,,0.01,Wunderground v.1.15,2013-09-25 12:16:00,
2013-09-25 07:21:00,53.3,51.6,29.97,NNW,328,2.0,2.0,94,0.00,,,0.01,Wunderground v.1.15,2013-09-25 12:21:00,
2013-09-25 07:27:00,53.7,52.0,29.98,North,6,1.0,4.0,94,0.00,,,0.01,Wunderground v.1.15,2013-09-25 12:27:00,
2013-09-25 07:32:00,54.0,52.3,29.98,North,4,2.0,3.0,94,0.00,,,0.01,Wunderground v.1.15,2013-09-25 12:32:00,
2013-09-25 07:37:00,54.4,52.7,29.97,North,349,0.0,3.0,94,0.00,,,0.01,Wunderground v.1.15,2013-09-25 12:37:00,
2013-09-25 07:42:00,54.7,53.0,29.98,WSW,253,0.0,1.0,94,0.00,,,0.01,Wunderground v.1.15,2013-09-25 12:42:00,
2013-09-25 07:47:00,55.0,53.3,29.98,North,360,1.0,4.0,94,0.00,,,0.01,Wunderground v.1.15,2013-09-25 12:47:00,
2013-09-25 07:52:00,55.3,53.3,29.98,NNW,348,0.0,1.0,93,0.00,,,0.01,Wunderground v.1.15,2013-09-25 12:52:00,
2013-09-25 07:57:00,55.6,53.6,29.98,North,349,0.0,3.0,93,0.00,,,0.01,Wunderground v.1.15,2013-09-25 12:57:00,
2013-09-25 08:02:00,55.9,53.9,29.98,NNE,18,1.0,3.0,93,0.00,,,0.01,Wunderground v.1.15,2013-09-25 13:02:00,
2013-09-25 08:07:00,56.3,54.3,29.98,NW,326,0.0,3.0,93,0.00,,,0.01,Wunderground v.1.15,2013-09-25 13:07:00,
2013-09-25 08:12:00,56.5,54.2,29.98,NNE,19,0.0,3.0,92,0.00,,,0.01,Wunderground v.1.15,2013-09-25 13:12:00,
2013-09-25 08:17:00,56.8,54.5,29.98,North,352,0.0,3.0,92,0.00,,,0.01,Wunderground v.1.15,2013-09-25 13:17:00,
2013-09-25 08:22:00,57.3,55.0,29.98,ENE,65,0.0,2.0,92,0.00,,,0.01,Wunderground v.1.15,2013-09-25 13:22:00,
2013-09-25 08:27:00,57.7,55.1,29.98,NNW,341,0.0,3.0,91,0.00,,,0.01,Wunderground v.1.15,2013-09-25 13:27:00,
2013-09-25 08:32:00,57.4,54.5,29.98,NNE,18,0.0,3.0,90,0.00,,,0.01,Wunderground v.1.15,2013-09-25 13:32:00,
2013-09-25 08:37:00,57.6,55.0,29.98,ENE,70,0.0,3.0,91,0.00,,,0.01,Wunderground v.1.15,2013-09-25 13:37:00,
2013-09-25 08:42:00,57.9,55.3,29.98,North,356,1.0,3.0,91,0.00,,,0.01,Wunderground v.1.15,2013-09-25 13:42:00,
2013-09-25 08:47:00,58.4,55.8,29.98,North,352,0.0,3.0,91,0.00,,,0.01,Wunderground v.1.15,2013-09-25 13:47:00,
2013-09-25 08:52:00,59.1,56.5,29.98,ENE,72,0.0,1.0,91,0.00,,,0.01,Wunderground v.1.15,2013-09-25 13:52:00,
2013-09-25 08:57:00,59.9,57.3,29.98,ENE,62,0.0,2.0,91,0.00,,,0.01,Wunderground v.1.15,2013-09-25 13:57:00,
2013-09-25 09:02:00,60.4,57.1,29.98,ENE,65,1.0,3.0,89,0.00,,,0.01,Wunderground v.1.15,2013-09-25 14:02:00,
2013-09-25 09:07:00,60.7,57.1,29.98,ENE,62,0.0,4.0,88,0.00,,,0.01,Wunderground v.1.15,2013-09-25 14:07:00,
2013-09-25 09:12:00,61.4,57.8,29.98,ENE,74,1.0,4.0,88,0.00,,,0.01,Wunderground v.1.15,2013-09-25 14:12:00,
2013-09-25 09:17:00,61.8,57.6,29.98,East,86,1.0,4.0,86,0.00,,,0.01,Wunderground v.1.15,2013-09-25 14:17:00,
2013-09-25 09:22:00,62.3,58.1,29.98,East,101,0.0,2.0,86,0.00,,,0.01,Wunderground v.1.15,2013-09-25 14:22:00,
2013-09-25 09:27:00,63.0,58.4,29.98,ENE,66,1.0,2.0,85,0.00,,,0.01,Wunderground v.1.15,2013-09-25 14:27:00,
2013-09-25 09:32:00,63.4,58.8,29.98,NE,55,4.0,4.0,85,0.00,,,0.01,Wunderground v.1.15,2013-09-25 14:32:00,
2013-09-25 09:37:00,62.9,57.7,29.98,ENE,70,3.0,6.0,83,0.00,,,0.01,Wunderground v.1.15,2013-09-25 14:37:00,
2013-09-25 09:42:00,62.7,57.8,29.98,NNW,340,3.0,6.0,84,0.00,,,0.01,Wunderground v.1.15,2013-09-25 14:42:00,
2013-09-25 09:47:00,63.1,58.2,29.98,East,79,5.0,6.0,84,0.00,,,0.01,Wunderground v.1.15,2013-09-25 14:47:00,
2013-09-25 09:52:00,63.1,58.2,29.98,NE,51,5.0,5.0,84,0.00,,,0.01,Wunderground v.1.15,2013-09-25 14:52:00,
2013-09-25 09:57:00,62.9,57.3,29.98,East,88,2.0,7.0,82,0.00,,,0.01,Wunderground v.1.15,2013-09-25 14:57:00,
2013-09-25 10:02:00,62.9,57.3,29.98,ENE,78,1.0,4.0,82,0.00,,,0.01,Wunderground v.1.15,2013-09-25 15:02:00,
2013-09-25 10:07:00,62.8,57.6,29.98,ENE,70,5.0,6.0,83,0.00,,,0.01,Wunderground v.1.15,2013-09-25 15:07:00,
2013-09-25 10:12:00,63.0,56.4,29.99,ENE,77,2.0,6.0,79,0.00,,,0.01,Wunderground v.1.15,2013-09-25 15:12:00,
2013-09-25 10:18:00,63.6,55.9,29.99,ENE,61,4.0,10.0,76,0.00,,,0.01,Wunderground v.1.15,2013-09-25 15:18:00,
2013-09-25 10:23:00,63.2,55.9,29.99,East,94,3.0,5.0,77,0.00,,,0.01,Wunderground v.1.15,2013-09-25 15:23:00,
2013-09-25 10:28:00,63.2,54.8,29.98,ENE,58,3.0,7.0,74,0.00,,,0.01,Wunderground v.1.15,2013-09-25 15:28:00,
2013-09-25 10:33:00,62.8,55.1,29.98,ENE,66,2.0,5.0,76,0.00,,,0.01,Wunderground v.1.15,2013-09-25 15:33:00,
2013-09-25 10:38:00,63.0,56.0,29.99,ENE,66,2.0,7.0,78,0.00,,,0.01,Wunderground v.1.15,2013-09-25 15:38:00,
2013-09-25 10:43:00,63.1,55.0,29.98,ENE,74,2.0,6.0,75,0.00,,,0.01,Wunderground v.1.15,2013-09-25 15:43:00,
2013-09-25 10:48:00,63.8,56.4,29.98,ENE,74,4.0,6.0,77,0.00,,,0.01,Wunderground v.1.15,2013-09-25 15:48:00,
2013-09-25 10:53:00,64.4,56.3,29.99,East,91,2.0,7.0,75,0.00,,,0.01,Wunderground v.1.15,2013-09-25 15:53:00,
2013-09-25 10:58:00,65.2,57.4,29.98,SE,126,3.0,7.0,76,0.00,,,0.01,Wunderground v.1.15,2013-09-25 15:58:00,
2013-09-25 11:03:00,65.6,55.2,29.98,SE,128,4.0,8.0,69,0.00,,,0.01,Wunderground v.1.15,2013-09-25 16:03:00,
2013-09-25 11:08:00,66.0,55.5,29.98,ENE,67,9.0,9.0,69,0.00,,,0.01,Wunderground v.1.15,2013-09-25 16:08:00,
2013-09-25 11:13:00,65.6,54.8,29.98,ENE,70,3.0,8.0,68,0.00,,,0.01,Wunderground v.1.15,2013-09-25 16:13:00,
2013-09-25 11:18:00,66.3,55.4,29.98,ENE,70,1.0,8.0,68,0.00,,,0.01,Wunderground v.1.15,2013-09-25 16:18:00,
2013-09-25 11:23:00,66.1,53.1,29.98,East,88,2.0,9.0,63,0.00,,,0.01,Wunderground v.1.15,2013-09-25 16:23:00,
2013-09-25 11:28:00,66.1,54.8,29.98,ENE,77,3.0,9.0,67,0.00,,,0.01,Wunderground v.1.15,2013-09-25 16:28:00,
2013-09-25 11:33:00,66.5,54.8,29.98,ENE,76,4.0,9.0,66,0.00,,,0.01,Wunderground v.1.15,2013-09-25 16:33:00,
2013-09-25 11:38:00,66.3,53.3,29.98,East,81,8.0,12.0,63,0.00,,,0.01,Wunderground v.1.15,2013-09-25 16:38:00,
2013-09-25 11:43:00,65.4,53.7,29.98,NE,44,2.0,5.0,66,0.00,,,0.01,Wunderground v.1.15,2013-09-25 16:43:00,
2013-09-25 11:48:00,66.0,54.3,29.98,East,79,2.0,10.0,66,0.00,,,0.01,Wunderground v.1.15,2013-09-25 16:48:00,
2013-09-25 11:53:00,66.5,53.9,29.98,ESE,118,7.0,10.0,64,0.00,,,0.01,Wunderground v.1.15,2013-09-25 16:53:00,
2013-09-25 11:58:00,66.2,54.1,29.98,East,97,5.0,11.0,65,0.00,,,0.01,Wunderground v.1.15,2013-09-25 16:58:00,
2013-09-25 12:03:00,66.9,55.2,29.98,ENE,61,4.0,7.0,66,0.00,,,0.01,Wunderground v.1.15,2013-09-25 17:03:00,
2013-09-25 12:08:00,67.1,54.9,29.98,ENE,59,2.0,10.0,65,0.00,,,0.01,Wunderground v.1.15,2013-09-25 17:08:00,
2013-09-25 12:13:00,67.1,54.1,29.98,East,83,4.0,11.0,63,0.00,,,0.01,Wunderground v.1.15,2013-09-25 17:13:00,
2013-09-25 12:18:00,67.5,56.2,29.98,East,86,1.0,11.0,67,0.00,,,0.01,Wunderground v.1.15,2013-09-25 17:18:00,
2013-09-25 12:23:00,67.5,54.0,29.98,ENE,62,4.0,9.0,62,0.00,,,0.01,Wunderground v.1.15,2013-09-25 17:23:00,
2013-09-25 12:28:00,67.7,54.6,29.97,SSE,149,2.0,9.0,63,0.00,,,0.01,Wunderground v.1.15,2013-09-25 17:28:00,
2013-09-25 12:33:00,67.7,53.8,29.98,ESE,105,3.0,9.0,61,0.00,,,0.01,Wunderground v.1.15,2013-09-25 17:33:00,
2013-09-25 12:38:00,67.2,55.0,29.98,ENE,67,7.0,12.0,65,0.00,,,0.01,Wunderground v.1.15,2013-09-25 17:38:00,
2013-09-25 12:43:00,67.0,53.5,29.98,East,81,4.0,8.0,62,0.00,,,0.01,Wunderground v.1.15,2013-09-25 17:43:00,
2013-09-25 12:48:00,66.5,53.1,29.98,ENE,64,3.0,8.0,62,0.00,,,0.01,Wunderground v.1.15,2013-09-25 17:48:00,
2013-09-25 12:53:00,66.7,54.6,29.97,NE,55,6.0,11.0,65,0.00,,,0.01,Wunderground v.1.15,2013-09-25 17:53:00,
2013-09-25 12:58:00,66.6,52.7,29.97,ENE,72,6.0,11.0,61,0.00,,,0.01,Wunderground v.1.15,2013-09-25 17:58:00,
2013-09-25 13:03:00,67.2,55.0,29.97,ENE,71,3.0,5.0,65,0.00,,,0.01,Wunderground v.1.15,2013-09-25 18:03:00,
2013-09-25 13:08:00,67.2,53.3,29.97,ENE,68,6.0,10.0,61,0.00,,,0.01,Wunderground v.1.15,2013-09-25 18:08:00,
2013-09-25 13:13:00,67.4,55.6,29.96,East,83,2.0,6.0,66,0.00,,,0.01,Wunderground v.1.15,2013-09-25 18:13:00,
2013-09-25 13:18:00,67.6,54.1,29.96,ENE,70,5.0,8.0,62,0.00,,,0.01,Wunderground v.1.15,2013-09-25 18:18:00,
2013-09-25 13:23:00,68.1,55.5,29.97,NE,53,4.0,5.0,64,0.00,,,0.01,Wunderground v.1.15,2013-09-25 18:23:00,
2013-09-25 13:28:00,68.0,54.9,29.96,ENE,63,4.0,7.0,63,0.00,,,0.01,Wunderground v.1.15,2013-09-25 18:28:00,
2013-09-25 13:33:00,67.7,54.2,29.97,ESE,122,1.0,4.0,62,0.00,,,0.01,Wunderground v.1.15,2013-09-25 18:33:00,
2013-09-25 13:38:00,68.1,55.5,29.97,East,79,3.0,7.0,64,0.00,,,0.01,Wunderground v.1.15,2013-09-25 18:38:00,
2013-09-25 13:43:00,68.3,54.8,29.96,East,82,4.0,7.0,62,0.00,,,0.01,Wunderground v.1.15,2013-09-25 18:43:00,
2013-09-25 13:48:00,67.7,53.3,29.96,ENE,73,6.0,7.0,60,0.00,,,0.01,Wunderground v.1.15,2013-09-25 18:48:00,
2013-09-25 13:53:00,67.4,53.9,29.96,ESE,116,6.0,8.0,62,0.00,,,0.01,Wunderground v.1.15,2013-09-25 18:53:00,
2013-09-25 13:58:00,67.3,53.8,29.96,ENE,77,3.0,8.0,62,0.00,,,0.01,Wunderground v.1.15,2013-09-25 18:58:00,
2013-09-25 14:03:00,67.6,54.1,29.96,ENE,58,3.0,5.0,62,0.00,,,0.01,Wunderground v.1.15,2013-09-25 19:03:00,
2013-09-25 14:08:00,67.8,55.2,29.96,ENE,66,2.0,8.0,64,0.00,,,0.01,Wunderground v.1.15,2013-09-25 19:08:00,
2013-09-25 14:13:00,67.9,54.4,29.95,ESE,105,3.0,6.0,62,0.00,,,0.01,Wunderground v.1.15,2013-09-25 19:13:00,
2013-09-25 14:18:00,67.8,54.7,29.95,East,99,1.0,8.0,63,0.00,,,0.01,Wunderground v.1.15,2013-09-25 19:18:00,
2013-09-25 14:23:00,67.6,54.6,29.95,ENE,65,6.0,9.0,63,0.00,,,0.01,Wunderground v.1.15,2013-09-25 19:23:00,
2013-09-25 14:28:00,67.7,55.5,29.95,East,85,2.0,9.0,65,0.00,,,0.01,Wunderground v.1.15,2013-09-25 19:28:00,
2013-09-25 14:34:00,67.6,55.4,29.95,ESE,113,2.0,10.0,65,0.00,,,0.01,Wunderground v.1.15,2013-09-25 19:34:00,
2013-09-25 14:39:00,67.8,55.6,29.95,ENE,66,4.0,10.0,65,0.00,,,0.01,Wunderground v.1.15,2013-09-25 19:39:00,
2013-09-25 14:44:00,68.0,54.9,29.95,NE,53,2.0,6.0,63,0.00,,,0.01,Wunderground v.1.15,2013-09-25 19:44:00,
2013-09-25 14:49:00,67.6,55.0,29.95,NE,56,2.0,10.0,64,0.00,,,0.01,Wunderground v.1.15,2013-09-25 19:49:00,
2013-09-25 14:54:00,67.4,54.8,29.95,North,1,2.0,7.0,64,0.00,,,0.01,Wunderground v.1.15,2013-09-25 19:54:00,
2013-09-25 14:59:00,67.9,55.7,29.95,ENE,74,1.0,7.0,65,0.00,,,0.01,Wunderground v.1.15,2013-09-25 19:59:00,
2013-09-25 15:04:00,67.7,55.1,29.95,ENE,68,3.0,10.0,64,0.00,,,0.01,Wunderground v.1.15,2013-09-25 20:04:00,
2013-09-25 15:09:00,67.7,55.5,29.95,East,91,3.0,10.0,65,0.00,,,0.01,Wunderground v.1.15,2013-09-25 20:09:00,
2013-09-25 15:14:00,67.8,55.2,29.95,North,358,6.0,7.0,64,0.00,,,0.01,Wunderground v.1.15,2013-09-25 20:14:00,
2013-09-25 15:19:00,67.4,55.2,29.95,NE,49,3.0,7.0,65,0.00,,,0.01,Wunderground v.1.15,2013-09-25 20:19:00,
2013-09-25 15:24:00,67.1,54.5,29.95,ENE,74,2.0,6.0,64,0.00,,,0.01,Wunderground v.1.15,2013-09-25 20:24:00,
2013-09-25 15:29:00,67.1,54.5,29.95,NE,47,7.0,10.0,64,0.00,,,0.01,Wunderground v.1.15,2013-09-25 20:29:00,
2013-09-25 15:34:00,67.1,54.9,29.95,East,97,7.0,11.0,65,0.00,,,0.01,Wunderground v.1.15,2013-09-25 20:34:00,
2013-09-25 15:39:00,66.3,53.8,29.95,ENE,72,2.0,11.0,64,0.00,,,0.01,Wunderground v.1.15,2013-09-25 20:39:00,
2013-09-25 15:44:00,66.4,53.8,29.95,ENE,61,3.0,7.0,64,0.00,,,0.01,Wunderground v.1.15,2013-09-25 20:44:00,
2013-09-25 15:49:00,66.0,54.7,29.95,ENE,70,4.0,7.0,67,0.00,,,0.01,Wunderground v.1.15,2013-09-25 20:49:00,
2013-09-25 15:54:00,65.1,53.5,29.95,East,86,5.0,9.0,66,0.00,,,0.01,Wunderground v.1.15,2013-09-25 20:54:00,
2013-09-25 15:59:00,64.5,53.7,29.95,ESE,109,5.0,9.0,68,0.00,,,0.01,Wunderground v.1.15,2013-09-25 20:59:00,
2013-09-25 16:04:00,65.0,54.2,29.95,ENE,70,3.0,9.0,68,0.00,,,0.01,Wunderground v.1.15,2013-09-25 21:04:00,
2013-09-25 16:09:00,65.4,54.6,29.95,East,79,4.0,9.0,68,0.00,,,0.01,Wunderground v.1.15,2013-09-25 21:09:00,
2013-09-25 16:14:00,65.4,53.7,29.95,East,81,3.0,8.0,66,0.00,,,0.01,Wunderground v.1.15,2013-09-25 21:14:00,
2013-09-25 16:19:00,65.5,54.7,29.95,ENE,65,2.0,8.0,68,0.00,,,0.01,Wunderground v.1.15,2013-09-25 21:19:00,
2013-09-25 16:24:00,65.6,54.8,29.95,East,99,7.0,9.0,68,0.00,,,0.01,Wunderground v.1.15,2013-09-25 21:24:00,
2013-09-25 16:29:00,65.3,54.5,29.95,ESE,112,2.0,11.0,68,0.00,,,0.01,Wunderground v.1.15,2013-09-25 21:29:00,
2013-09-25 16:34:00,65.2,54.4,29.95,ENE,72,5.0,8.0,68,0.00,,,0.01,Wunderground v.1.15,2013-09-25 21:34:00,
2013-09-25 16:39:00,65.0,54.6,29.95,ENE,70,2.0,11.0,69,0.00,,,0.01,Wunderground v.1.15,2013-09-25 21:39:00,
2013-09-25 16:44:00,65.0,54.6,29.94,East,94,3.0,10.0,69,0.00,,,0.01,Wunderground v.1.15,2013-09-25 21:44:00,
2013-09-25 16:49:00,65.1,53.9,29.94,ESE,105,4.0,10.0,67,0.00,,,0.01,Wunderground v.1.15,2013-09-25 21:49:00,
2013-09-25 16:54:00,65.1,54.7,29.95,ENE,70,4.0,7.0,69,0.00,,,0.01,Wunderground v.1.15,2013-09-25 21:54:00,
2013-09-25 16:59:00,64.9,54.1,29.95,SE,131,5.0,10.0,68,0.00,,,0.01,Wunderground v.1.15,2013-09-25 21:59:00,
2013-09-25 17:04:00,64.8,53.6,29.95,ESE,102,4.0,9.0,67,0.00,,,0.01,Wunderground v.1.15,2013-09-25 22:04:00,
2013-09-25 17:09:00,64.5,54.1,29.95,East,81,6.0,10.0,69,0.00,,,0.01,Wunderground v.1.15,2013-09-25 22:09:00,
2013-09-25 17:14:00,64.5,54.1,29.95,ENE,65,2.0,7.0,69,0.00,,,0.01,Wunderground v.1.15,2013-09-25 22:14:00,
2013-09-25 17:19:00,64.5,53.7,29.95,SE,125,3.0,7.0,68,0.00,,,0.01,Wunderground v.1.15,2013-09-25 22:19:00,
2013-09-25 17:24:00,64.3,53.5,29.95,ENE,62,4.0,7.0,68,0.00,,,0.01,Wunderground v.1.15,2013-09-25 22:24:00,
2013-09-25 17:29:00,63.9,53.9,29.95,ENE,74,4.0,9.0,70,0.00,,,0.01,Wunderground v.1.15,2013-09-25 22:29:00,
2013-09-25 17:34:00,63.7,54.1,29.95,ENE,70,5.0,10.0,71,0.00,,,0.01,Wunderground v.1.15,2013-09-25 22:34:00,
2013-09-25 17:40:00,63.3,52.6,29.95,ENE,65,6.0,10.0,68,0.00,,,0.01,Wunderground v.1.15,2013-09-25 22:40:00,
2013-09-25 17:45:00,63.0,53.1,29.95,ENE,68,4.0,7.0,70,0.00,,,0.01,Wunderground v.1.15,2013-09-25 22:45:00,
2013-09-25 17:50:00,62.8,52.5,29.95,ENE,60,2.0,8.0,69,0.00,,,0.01,Wunderground v.1.15,2013-09-25 22:50:00,
2013-09-25 17:55:00,62.7,52.8,29.95,ENE,71,2.0,4.0,70,0.00,,,0.01,Wunderground v.1.15,2013-09-25 22:55:00,
2013-09-25 18:00:00,62.5,51.8,29.95,ENE,66,4.0,8.0,68,0.00,,,0.01,Wunderground v.1.15,2013-09-25 23:00:00,
2013-09-25 18:05:00,62.2,52.3,29.95,East,94,4.0,7.0,70,0.00,,,0.01,Wunderground v.1.15,2013-09-25 23:05:00,
2013-09-25 18:10:00,61.9,52.4,29.95,ENE,65,4.0,10.0,71,0.00,,,0.01,Wunderground v.1.15,2013-09-25 23:10:00,
2013-09-25 18:15:00,61.6,52.5,29.95,ENE,74,2.0,6.0,72,0.00,,,0.01,Wunderground v.1.15,2013-09-25 23:15:00,
2013-09-25 18:20:00,61.4,52.7,29.95,ENE,62,3.0,6.0,73,0.00,,,0.01,Wunderground v.1.15,2013-09-25 23:20:00,
2013-09-25 18:25:00,61.1,52.7,29.95,ENE,68,0.0,3.0,74,0.00,,,0.01,Wunderground v.1.15,2013-09-25 23:25:00,
2013-09-25 18:30:00,60.8,52.8,29.95,East,97,1.0,3.0,75,0.00,,,0.01,Wunderground v.1.15,2013-09-25 23:30:00,
2013-09-25 18:35:00,60.5,52.9,29.95,ENE,74,2.0,4.0,76,0.00,,,0.01,Wunderground v.1.15,2013-09-25 23:35:00,
2013-09-25 18:40:00,59.8,52.6,29.95,ENE,72,0.0,4.0,77,0.00,,,0.01,Wunderground v.1.15,2013-09-25 23:40:00,
2013-09-25 18:45:00,59.2,52.3,29.95,ENE,72,1.0,4.0,78,0.00,,,0.01,Wunderground v.1.15,2013-09-25 23:45:00,
2013-09-25 18:50:00,58.7,52.5,29.95,East,91,1.0,4.0,80,0.00,,,0.01,Wunderground v.1.15,2013-09-25 23:50:00,
2013-09-25 18:55:00,58.3,52.2,29.95,ENE,74,0.0,2.0,80,0.00,,,0.01,Wunderground v.1.15,2013-09-25 23:55:00,
2013-09-25 19:00:00,57.9,52.1,29.95,ENE,74,0.0,2.0,81,0.00,,,0.01,Wunderground v.1.15,2013-09-26 00:00:00,
2013-09-25 19:05:00,57.5,52.0,29.95,ENE,74,0.0,0.0,82,0.00,,,0.01,Wunderground v.1.15,2013-09-26 00:05:00,
2013-09-25 19:10:00,57.0,51.9,29.96,ENE,73,0.0,1.0,83,0.00,,,0.01,Wunderground v.1.15,2013-09-26 00:10:00,
2013-09-25 19:15:00,56.6,51.8,29.96,ENE,74,0.0,1.0,84,0.00,,,0.01,Wunderground v.1.15,2013-09-26 00:15:00,
2013-09-25 19:20:00,56.0,51.2,29.96,ENE,74,0.0,1.0,84,0.00,,,0.01,Wunderground v.1.15,2013-09-26 00:20:00,
2013-09-25 19:25:00,55.7,51.9,29.96,ENE,74,0.0,1.0,87,0.00,,,0.01,Wunderground v.1.15,2013-09-26 00:25:00,
2013-09-25 19:30:00,55.6,51.8,29.96,North,1,0.0,1.0,87,0.00,,,0.01,Wunderground v.1.15,2013-09-26 00:30:00,
2013-09-25 19:35:00,55.5,51.7,29.96,NNE,25,0.0,1.0,87,0.00,,,0.01,Wunderground v.1.15,2013-09-26 00:35:00,
2013-09-25 19:40:00,55.4,51.9,29.96,NNE,25,0.0,1.0,88,0.00,,,0.01,Wunderground v.1.15,2013-09-26 00:40:00,
2013-09-25 19:45:00,55.2,51.7,29.96,NNE,24,0.0,0.0,88,0.00,,,0.01,Wunderground v.1.15,2013-09-26 00:45:00,
2013-09-25 19:50:00,54.8,51.3,29.97,NNE,25,0.0,0.0,88,0.00,,,0.01,Wunderground v.1.15,2013-09-26 00:50:00,
2013-09-25 19:55:00,54.3,50.8,29.97,NNE,25,0.0,0.0,88,0.00,,,0.01,Wunderground v.1.15,2013-09-26 00:55:00,
2013-09-25 20:00:00,53.9,50.7,29.97,NNE,25,0.0,0.0,89,0.00,,,0.01,Wunderground v.1.15,2013-09-26 01:00:00,
2013-09-25 20:05:00,53.5,50.3,29.97,NNE,24,0.0,0.0,89,0.00,,,0.01,Wunderground v.1.15,2013-09-26 01:05:00,
2013-09-25 20:10:00,52.7,49.5,29.97,West,271,0.0,0.0,89,0.00,,,0.01,Wunderground v.1.15,2013-09-26 01:10:00,
2013-09-25 20:15:00,51.9,49.1,29.97,West,271,0.0,0.0,90,0.00,,,0.01,Wunderground v.1.15,2013-09-26 01:15:00,
2013-09-25 20:20:00,51.4,48.9,29.97,West,271,0.0,0.0,91,0.00,,,0.01,Wunderground v.1.15,2013-09-26 01:20:00,
2013-09-25 20:25:00,51.0,48.5,29.97,West,271,0.0,0.0,91,0.00,,,0.01,Wunderground v.1.15,2013-09-26 01:25:00,
2013-09-25 20:30:00,50.9,48.7,29.97,West,271,0.0,0.0,92,0.00,,,0.01,Wunderground v.1.15,2013-09-26 01:30:00,
2013-09-25 20:35:00,50.6,48.4,29.97,West,271,0.0,0.0,92,0.00,,,0.01,Wunderground v.1.15,2013-09-26 01:35:00,
2013-09-25 20:40:00,50.0,47.5,29.97,West,271,0.0,0.0,91,0.00,,,0.01,Wunderground v.1.15,2013-09-26 01:40:00,
2013-09-25 20:45:00,49.6,47.4,29.97,West,271,0.0,0.0,92,0.00,,,0.01,Wunderground v.1.15,2013-09-26 01:45:00,
2013-09-25 20:50:00,49.5,47.6,29.96,WNW,285,0.0,0.0,93,0.00,,,0.01,Wunderground v.1.15,2013-09-26 01:50:00,
2013-09-25 20:55:00,50.7,49.3,29.96,NNW,344,0.0,0.0,95,0.00,,,0.01,Wunderground v.1.15,2013-09-26 01:55:00,
2013-09-25 21:00:00,51.3,49.6,29.96,NNW,344,0.0,0.0,94,0.00,,,0.01,Wunderground v.1.15,2013-09-26 02:00:00,
2013-09-25 21:05:00,51.8,50.4,29.96,NE,46,0.0,1.0,95,0.00,,,0.01,Wunderground v.1.15,2013-09-26 02:05:00,
2013-09-25 21:10:00,52.4,51.0,29.96,NE,45,0.0,1.0,95,0.00,,,0.01,Wunderground v.1.15,2013-09-26 02:10:00,
2013-09-25 21:15:00,52.5,50.8,29.96,NE,45,0.0,0.0,94,0.00,,,0.01,Wunderground v.1.15,2013-09-26 02:15:00,
2013-09-25 21:20:00,52.4,50.7,29.96,NE,46,0.0,0.0,94,0.00,,,0.01,Wunderground v.1.15,2013-09-26 02:20:00,
2013-09-25 21:25:00,52.1,50.1,29.96,NE,45,0.0,0.0,93,0.00,,,0.01,Wunderground v.1.15,2013-09-26 02:25:00,
2013-09-25 21:30:00,51.4,49.2,29.97,West,266,0.0,0.0,92,0.00,,,0.01,Wunderground v.1.15,2013-09-26 02:30:00,
2013-09-25 21:35:00,50.5,48.3,29.97,West,266,0.0,0.0,92,0.00,,,0.01,Wunderground v.1.15,2013-09-26 02:35:00,
2013-09-25 21:40:00,49.7,47.5,29.97,West,264,0.0,0.0,92,0.00,,,0.01,Wunderground v.1.15,2013-09-26 02:40:00,
2013-09-25 21:45:00,49.2,47.3,29.97,West,266,0.0,0.0,93,0.00,,,0.01,Wunderground v.1.15,2013-09-26 02:45:00,
2013-09-25 21:50:00,48.9,47.0,29.97,West,266,0.0,0.0,93,0.00,,,0.01,Wunderground v.1.15,2013-09-26 02:50:00,
2013-09-25 21:55:00,48.8,47.2,29.97,West,266,0.0,0.0,94,0.00,,,0.01,Wunderground v.1.15,2013-09-26 02:55:00,
2013-09-25 22:00:00,48.8,47.2,29.97,West,266,0.0,0.0,94,0.00,,,0.01,Wunderground v.1.15,2013-09-26 03:00:00,
2013-09-25 22:05:00,50.0,48.9,29.97,WNW,300,0.0,0.0,96,0.00,,,0.01,Wunderground v.1.15,2013-09-26 03:05:00,
2013-09-25 22:10:00,51.1,50.0,29.97,NE,37,0.0,0.0,96,0.00,,,0.01,Wunderground v.1.15,2013-09-26 03:10:00,
2013-09-25 22:15:00,51.7,50.6,29.97,North,354,0.0,0.0,96,0.00,,,0.01,Wunderground v.1.15,2013-09-26 03:15:00,
2013-09-25 22:20:00,52.1,51.0,29.96,North,359,0.0,0.0,96,0.00,,,0.01,Wunderground v.1.15,2013-09-26 03:20:00,
2013-09-25 22:25:00,52.2,50.8,29.96,North,11,0.0,0.0,95,0.00,,,0.01,Wunderground v.1.15,2013-09-26 03:25:00,
2013-09-25 22:30:00,52.2,50.8,29.96,North,11,0.0,0.0,95,0.00,,,0.01,Wunderground v.1.15,2013-09-26 03:30:00,
2013-09-25 22:35:00,52.2,50.8,29.96,North,11,0.0,1.0,95,0.00,,,0.01,Wunderground v.1.15,2013-09-26 03:35:00,
2013-09-25 22:40:00,52.2,50.8,29.97,North,10,0.0,0.0,95,0.00,,,0.01,Wunderground v.1.15,2013-09-26 03:40:00,
2013-09-25 22:45:00,51.7,50.0,29.97,North,11,0.0,0.0,94,0.00,,,0.01,Wunderground v.1.15,2013-09-26 03:45:00,
2013-09-25 22:50:00,50.7,48.7,29.97,NW,307,0.0,0.0,93,0.00,,,0.01,Wunderground v.1.15,2013-09-26 03:50:00,
2013-09-25 22:55:00,49.7,47.8,29.97,NW,307,0.0,1.0,93,0.00,,,0.01,Wunderground v.1.15,2013-09-26 03:55:00,
2013-09-25 23:00:00,49.3,47.6,29.97,NW,306,0.0,0.0,94,0.00,,,0.01,Wunderground v.1.15,2013-09-26 04:00:00,
2013-09-25 23:01:00,49.3,47.6,29.97,NW,306,0.0,0.0,94,0.00,,,0.01,Wunderground v.1.15,2013-09-26 04:01:00,
2013-09-25 23:06:00,49.2,47.5,29.97,NW,307,0.0,0.0,94,0.00,,,0.01,Wunderground v.1.15,2013-09-26 04:06:00,
2013-09-25 23:11:00,48.9,47.2,29.97,WNW,284,0.0,0.0,94,0.00,,,0.01,Wunderground v.1.15,2013-09-26 04:11:00,
2013-09-25 23:16:00,48.5,46.9,29.97,WNW,283,0.0,0.0,94,0.00,,,0.01,Wunderground v.1.15,2013-09-26 04:16:00,
2013-09-25 23:21:00,48.6,47.2,29.97,West,262,0.0,0.0,95,0.00,,,0.01,Wunderground v.1.15,2013-09-26 04:21:00,
2013-09-25 23:26:00,48.7,47.3,29.98,West,266,0.0,0.0,95,0.00,,,0.01,Wunderground v.1.15,2013-09-26 04:26:00,
2013-09-25 23:31:00,48.5,47.1,29.98,West,265,0.0,0.0,95,0.00,,,0.01,Wunderground v.1.15,2013-09-26 04:31:00,
2013-09-25 23:36:00,48.4,47.0,29.98,West,266,0.0,0.0,95,0.00,,,0.01,Wunderground v.1.15,2013-09-26 04:36:00,
2013-09-25 23:41:00,48.9,47.8,29.98,North,6,0.0,0.0,96,0.00,,,0.01,Wunderground v.1.15,2013-09-26 04:41:00,
2013-09-25 23:46:00,49.7,48.6,29.97,North,9,0.0,0.0,96,0.00,,,0.01,Wunderground v.1.15,2013-09-26 04:46:00,
2013-09-25 23:51:00,50.4,49.3,29.98,North,9,0.0,0.0,96,0.00,,,0.01,Wunderground v.1.15,2013-09-26 04:51:00,
2013-09-25 23:56:00,50.6,49.5,29.97,North,9,0.0,0.0,96,0.00,,,0.01,Wunderground v.1.15,2013-09-26 04:56:00,